Location: *
(2.5500°S, 65.9667°W)
Time: 07:34:39
(UTC+00:00)

Explorer 7 - Pass Details

Date: 18 April 2024
Orbit: 467 x 625 km, 50.3° (Epoch: 26 May)

Event Time Altitude Azimuth Distance (km) Brightness Sun altitude
Rises 11:35:21 0° 180° (S) 2,706 10.2 17.2°
Reaches altitude 10° 11:39:34 10° 139° (SE) 1,862 10.0 18.2°
Maximum altitude 11:40:21 10° 128° (SE) 1,844 10.2 18.4°
Drops below altitude 10° 11:41:08 10° 117° (ESE) 1,880 10.5 18.6°
Sets 11:45:30 0° 77° (ENE) 2,824 12.1 19.7°
